GW3256 Weather Reports


time (UTC)temp
C
wind
direction
speed
KPH
gust
KPH
rain 1hr
cm
rain 24hr
cm
rain mn
cm
humidity
%
barometer
mb
20260504224058 22 166 1.6 9.7 0.00 0.08 0.00 87 1398.0
20260504223558 22 125 4.8 8.0 0.00 0.08 0.00 87 1398.0
20260504223103 22 117 3.2 4.8 0.00 0.08 0.00 88 125.8
20260504222602 22 314 1.6 3.2 0.00 0.08 0.00 89 1615.1
20260504222057 22 36 1.6 3.2 0.00 0.08 0.00 89 219.2
20260504221612 22 11 1.6 9.7 0.00 0.08 0.00 89 818.6
20260504221100 21 0 3.2 9.7 0.00 0.08 0.00 89 217.9
20260504220600 21 140 3.2 4.8 0.00 0.08 0.00 89 124.6
20260504220058 21 61 0.0 3.2 0.00 0.08 0.00 89 1563.4
20260504215558 21 360 1.6 3.2 0.00 0.08 0.00 89 291.7
20260504215100 21 0 0.0 6.4 0.00 0.08 0.00 89 1211.8
20260504214610 21 0 3.2 6.4 0.00 0.08 0.00 89 155.7
20260504214058 21 150 3.2 6.4 0.00 0.08 0.00 89 1480.7
20260504213558 21 137 0.0 4.8 0.00 0.08 0.00 89 135.0
20260504213112 21 344 1.6 6.4 0.00 0.08 0.00 89 1211.8
20260504212558 21 350 4.8 8.0 0.00 0.08 0.00 89 1315.2
20260504212059 21 352 1.6 8.0 0.00 0.08 0.00 89 62.3
20260504211559 21 13 4.8 8.0 0.00 0.08 0.00 89 1966.7
20260504211058 21 9 1.6 4.8 0.00 0.08 0.00 89 549.5
20260504210558 21 315 3.2 4.8 0.00 0.08 0.00 89 1563.4
20260504210101 20 315 3.2 3.2 0.00 0.08 0.00 89 735.8
20260504205558 20 315 0.0 3.2 0.00 0.08 0.00 89 1398.0
20260504205058 20 0 0.0 3.2 0.00 0.08 0.00 89 2049.4
20260504204605 20 315 1.6 3.2 0.00 0.08 0.00 89 1470.4
20260504204057 20 0 0.0 4.8 0.00 0.08 0.00 89 41.5
20260504203559 20 0 0.0 4.8 0.00 0.08 0.00 89 302.1
20260504203100 20 315 1.6 4.8 0.00 0.08 0.00 89 477.0
20260504202558 20 98 3.2 4.8 0.00 0.08 0.00 89 1615.1
20260504202058 20 84 3.2 4.8 0.00 0.08 0.00 89 1625.5
20260504201600 20 79 1.6 6.4 0.00 0.08 0.00 89 1646.2
20260504201101 20 327 3.2 6.4 0.00 0.08 0.00 89 1977.0
20260504200558 20 348 4.8 6.4 0.00 0.08 0.00 89 2194.1
20260504200104 20 278 3.2 3.2 0.00 0.08 0.00 89 374.6
20260504195559 20 278 0.0 4.8 0.00 0.08 0.00 89 1708.2
20260504195058 20 178 1.6 4.8 0.00 0.08 0.00 89 787.6
20260504194601 20 149 3.2 4.8 0.00 0.08 0.00 89 145.3
20260504194058 20 50 1.6 3.2 0.00 0.08 0.00 89 787.6
20260504193601 20 322 1.6 3.2 0.00 0.08 0.00 89 953.2
20260504193102 20 322 1.6 3.2 0.00 0.08 0.00 89 880.7
20260504192557 20 322 0.0 3.2 0.00 0.08 0.00 89 549.5
20260504192057 20 322 1.6 3.2 0.00 0.08 0.00 89 1387.6
20260504191602 20 322 0.0 3.2 0.00 0.08 0.00 89 146.5
20260504191058 20 322 0.0 3.2 0.00 0.08 0.00 89 1480.7
20260504190558 20 0 0.0 3.2 0.00 0.08 0.00 89 374.6
20260504190059 20 322 0.0 3.2 0.00 0.08 0.00 89 73.9
20260504185557 20 0 0.0 3.2 0.00 0.08 0.00 89 146.5
20260504185058 20 322 0.0 3.2 0.00 0.08 0.00 89 5.8
20260504184559 20 322 1.6 3.2 0.00 0.08 0.00 89 1780.6
20260504184057 20 322 0.0 3.2 0.00 0.08 0.00 89 156.9
20260504183557 20 322 0.0 3.2 0.00 0.08 0.00 89 291.7
20260504183059 20 322 3.2 3.2 0.00 0.08 0.00 89 808.3
20260504182559 20 292 1.6 3.2 0.00 0.08 0.00 89 1284.2
20260504182059 20 292 0.0 3.2 0.00 0.08 0.00 89 1873.6
20260504181601 20 262 0.0 3.2 0.00 0.08 0.00 89 456.3
20260504181058 20 153 1.6 3.2 0.00 0.08 0.00 89 984.2
20260504180600 20 183 1.6 3.2 0.00 0.08 0.00 89 322.8
20260504180103 20 0 0.0 3.2 0.00 0.08 0.00 89 125.8
20260504175557 20 51 0.0 3.2 0.00 0.08 0.00 89 1480.7
20260504175057 20 51 1.6 3.2 0.00 0.08 0.00 89 1398.0
20260504174600 20 0 0.0 4.8 0.00 0.08 0.00 89 1956.3
20260504174101 20 323 1.6 4.8 0.00 0.08 0.00 89 2049.4
20260504173558 20 273 1.6 4.8 0.00 0.08 0.00 89 404.5
20260504173100 20 352 1.6 4.8 0.00 0.08 0.00 89 2132.1
20260504172557 20 352 1.6 3.2 0.00 0.08 0.00 89 1811.6
20260504172100 20 314 0.0 3.2 0.00 0.08 0.00 89 312.4
20260504171600 20 0 0.0 3.2 0.00 0.08 0.00 89 1718.5
20260504171057 20 214 1.6 4.8 0.00 0.08 0.00 89 374.6
20260504170559 20 132 1.6 6.4 0.00 0.08 0.00 89 1873.6
20260504151057 20 315 0.0 3.2 0.00 0.08 0.00 89 155.7
20260504150559 20 0 0.0 3.2 0.00 0.08 0.00 88 559.8
20260504150111 21 315 0.0 3.2 0.00 0.08 0.00 89 394.1
20260504141059 21 59 0.0 3.2 0.00 0.08 0.00 88 1304.9
20260504140557 21 0 1.6 3.2 0.00 0.08 0.00 88 1470.4
20260504130558 21 319 4.8 14.5 0.00 0.08 0.08 87 322.8
20260504110559 21 0 1.6 3.2 0.00 0.05 0.05 88 383.8
20260504100559 21 323 1.6 8.0 0.03 0.03 0.03 87 477.0
20260504081559 22 99 1.6 6.4 0.00 0.00 0.00 84 1780.6
20260504081103 22 136 1.6 8.0 0.00 0.00 0.00 83 1211.8
20260504080559 22 160 1.6 9.7 0.00 0.00 0.00 83 73.9
20260504080114 22 162 4.8 9.7 0.00 0.00 0.00 83 207.6
20260504050559 26 89 9.7 19.3 0.00 0.00 0.00 72 559.8
20260504045558 26 90 6.4 12.9 0.00 0.00 0.00 73 1542.8
20260504045058 26 124 4.8 12.9 0.00 0.00 0.00 72 1625.5
20260504044558 26 130 8.0 12.9 0.00 0.00 0.00 73 311.3
20260504044058 26 133 6.4 12.9 0.00 0.00 0.00 74 1304.9
20260504043558 27 119 6.4 17.7 0.00 0.00 0.00 73 300.9
20260504043112 26 115 9.7 19.3 0.00 0.00 0.00 74 632.3
20260504042603 26 146 11.3 19.3 0.00 0.00 0.00 74 1635.8
20260504042100 26 130 6.4 14.5 0.00 0.00 0.00 76 808.3
20260504041607 26 126 8.0 14.5 0.00 0.00 0.00 76 405.7
20260504041059 26 131 3.2 17.7 0.00 0.00 0.00 76 1811.6
20260504040559 26 150 9.7 17.7 0.00 0.00 0.00 75 404.5
20260504040123 26 157 9.7 17.7 0.00 0.00 0.00 74 1811.6
20260504035559 27 127 11.3 19.3 0.00 0.00 0.00 73 549.5
20260504035059 26 53 8.0 19.3 0.00 0.00 0.00 76 1366.9
20260504034600 26 158 8.0 20.9 0.00 0.00 0.00 76 42.7
20260504034058 26 115 11.3 20.9 0.00 0.00 0.00 76 42.7
20260504033558 26 142 9.7 20.9 0.00 0.00 0.00 77 146.5
20260504033102 26 74 4.8 16.1 0.00 0.00 0.00 77 953.2
20260504032559 26 86 9.7 16.1 0.00 0.00 0.00 76 1149.7
20260504032059 26 117 9.7 19.3 0.00 0.00 0.00 77 973.8
20260504031601 26 123 8.0 19.3 0.00 0.00 0.00 78 808.3
20260504031059 26 166 11.3 19.3 0.00 0.00 0.00 78 300.9
20260504030558 26 162 1.6 6.4 0.00 0.00 0.00 78 1873.6
20260504030059 26 24 1.6 6.4 0.00 0.00 0.00 79 1946.0
20260504025558 26 109 1.6 8.0 0.00 0.00 0.00 78 1646.2
20260504025059 26 271 4.8 8.0 0.00 0.00 0.00 77 1470.4
20260504024557 26 252 3.2 6.4 0.00 0.00 0.00 79 1863.3
20260504024059 26 252 3.2 6.4 0.00 0.00 0.00 79 1863.3
20260504023559 25 204 3.2 9.7 0.00 0.00 0.00 81 984.2
20260504023103 25 200 1.6 9.7 0.00 0.00 0.00 80 1118.7
20260504022559 25 198 4.8 9.7 0.00 0.00 0.00 80 374.6
20260504022059 25 157 6.4 14.5 0.00 0.00 0.00 80 466.6
20260504021601 26 149 6.4 14.5 0.00 0.00 0.00 78 818.6
20260504021058 26 184 4.8 11.3 0.00 0.00 0.00 78 291.7
20260504020602 26 128 4.8 9.7 0.00 0.00 0.00 77 1387.6
20260504015558 26 152 3.2 9.7 0.00 0.00 0.00 77 1697.9
20260504015059 26 0 3.2 9.7 0.00 0.00 0.00 78 1377.3
20260504014607 26 131 4.8 9.7 0.00 0.00 0.00 78 1315.2
20260504014059 25 156 1.6 6.4 0.00 0.00 0.00 79 72.7
20260504013558 25 189 3.2 8.0 0.00 0.00 0.00 79 1697.9
20260504013113 25 190 4.8 9.7 0.00 0.00 0.00 80 290.5
20260504012600 25 182 4.8 9.7 0.00 0.00 0.00 80 217.9
20260504012059 25 191 3.2 6.4 0.00 0.00 0.00 81 146.5
20260504011600 24 261 3.2 6.4 0.00 0.00 0.00 82 1201.4
20260504011058 24 202 1.6 14.5 0.00 0.00 0.00 82 373.4
20260504010559 24 205 6.4 14.5 0.00 0.00 0.00 82 2111.4
20260504010105 24 217 8.0 19.3 0.00 0.00 0.00 81 984.2
20260504005559 24 209 9.7 19.3 0.00 0.00 0.00 80 1532.4
20260504005102 25 177 8.0 16.1 0.00 0.00 0.00 80 1801.2
20260504004610 25 202 9.7 19.3 0.00 0.00 0.00 80 207.6
20260504004058 25 136 9.7 19.3 0.00 0.00 0.00 81 1977.0
20260504003558 25 173 11.3 17.7 0.00 0.00 0.00 80 208.8
20260504003105 25 179 9.7 17.7 0.00 0.00 0.00 81 302.1
20260504002558 25 182 6.4 14.5 0.00 0.00 0.00 80 1066.9
20260504002058 25 171 6.4 19.3 0.00 0.00 0.00 79 1790.9
20260504001608 25 136 9.7 19.3 0.00 0.00 0.00 79 1956.3
20260504001058 26 185 9.7 16.1 0.00 0.00 0.00 78 1542.8
20260504000557 26 161 6.4 12.9 0.00 0.00 0.00 79 2028.7
20260504000129 26 173 4.8 11.3 0.00 0.00 0.00 79 1315.2
20260503235558 26 198 3.2 9.7 0.00 0.00 0.00 79 1304.9
20260503235059 26 161 1.6 6.4 0.00 0.00 0.00 79 2142.4
20260503234559 25 109 3.2 6.4 0.00 0.00 0.00 79 383.8
20260503234059 25 146 3.2 6.4 0.00 0.00 0.00 80 1222.1
20260503233559 24 130 1.6 6.4 0.00 0.00 0.00 84 228.3
20260503233108 23 53 3.2 6.4 0.00 0.00 0.00 85 1708.2
20260503232600 23 46 3.2 6.4 0.00 0.00 0.00 86 207.6
20260503232057 23 9 3.2 6.4 0.00 0.00 0.00 86 798.0
20260503231558 23 296 3.2 6.4 0.00 0.00 0.00 86 1553.1
20260503231117 22 258 1.6 6.4 0.00 0.00 0.00 85 125.8
20260503230603 22 186 3.2 9.7 0.00 0.00 0.00 85 1635.8
20260503230104 22 138 4.8 9.7 0.00 0.00 0.00 85 2049.4
20260503225602 23 125 1.6 6.4 0.00 0.00 0.00 84 53.1
20260503225104 23 153 3.2 6.4 0.00 0.00 0.00 84 404.5
20260503224602 23 147 3.2 4.8 0.00 0.00 0.00 83 374.6